TimePST,TemperatureF,Dew PointF,Humidity,Sea Level PressureIn,VisibilityMPH,Wind Direction,Wind SpeedMPH,Gust SpeedMPH,PrecipitationIn,Events,Conditions,WindDirDegrees,DateUTC
12:15 AM,46.4,41.0,81,30.24,4.0,Calm,Calm,-,N/A,,Clear,0,2013-02-02 08:15:00
12:35 AM,44.6,39.2,81,30.24,3.0,Calm,Calm,-,N/A,,Clear,0,2013-02-02 08:35:00
12:55 AM,46.4,39.2,76,30.25,3.0,Calm,Calm,-,N/A,,Clear,0,2013-02-02 08:55:00
1:15 AM,46.4,41.0,81,30.25,3.0,Calm,Calm,-,N/A,,Clear,0,2013-02-02 09:15:00
1:35 AM,44.6,39.2,81,30.26,3.0,Calm,Calm,-,N/A,,Clear,0,2013-02-02 09:35:00
1:55 AM,44.6,41.0,87,30.25,2.5,East,4.6,-,N/A,,Clear,100,2013-02-02 09:55:00
2:15 AM,46.4,41.0,81,30.24,3.0,ENE,4.6,-,N/A,,Clear,70,2013-02-02 10:15:00
2:35 AM,46.4,42.8,87,30.24,3.0,ENE,4.6,-,N/A,,Clear,70,2013-02-02 10:35:00
2:55 AM,48.2,42.8,82,30.23,5.0,ENE,5.8,-,N/A,,Clear,70,2013-02-02 10:55:00
3:15 AM,48.2,41.0,76,30.23,6.0,Calm,Calm,-,N/A,,Clear,0,2013-02-02 11:15:00
3:35 AM,46.4,39.2,76,30.22,3.0,West,4.6,-,N/A,,Clear,280,2013-02-02 11:35:00
4:15 AM,44.6,39.2,81,30.22,2.5,Calm,Calm,-,N/A,,Clear,0,2013-02-02 12:15:00
4:35 AM,44.6,39.2,81,30.23,2.0,Calm,Calm,-,N/A,,Clear,0,2013-02-02 12:35:00
4:55 AM,44.6,41.0,87,30.23,2.5,Calm,Calm,-,N/A,,Clear,0,2013-02-02 12:55:00
5:15 AM,44.6,39.2,81,30.23,2.0,Calm,Calm,-,N/A,,Clear,0,2013-02-02 13:15:00
5:35 AM,44.6,39.2,81,30.24,2.0,East,3.5,-,N/A,,Clear,80,2013-02-02 13:35:00
5:55 AM,44.6,39.2,81,30.24,2.5,East,4.6,-,N/A,,Clear,90,2013-02-02 13:55:00
6:15 AM,44.6,41.0,87,30.26,3.0,East,5.8,-,N/A,,Clear,100,2013-02-02 14:15:00
6:35 AM,46.4,41.0,81,30.25,5.0,East,4.6,-,N/A,,Clear,80,2013-02-02 14:35:00
6:55 AM,44.6,39.2,81,30.26,5.0,ESE,4.6,-,N/A,,Clear,120,2013-02-02 14:55:00
7:15 AM,44.6,41.0,87,30.26,4.0,Calm,Calm,-,N/A,,Clear,0,2013-02-02 15:15:00
7:35 AM,44.6,39.2,81,30.26,4.0,Calm,Calm,-,N/A,,Clear,0,2013-02-02 15:35:00
7:55 AM,46.4,42.8,87,30.26,5.0,Calm,Calm,-,N/A,,Clear,0,2013-02-02 15:55:00
8:15 AM,48.2,42.8,82,30.27,4.0,Calm,Calm,-,N/A,,Clear,0,2013-02-02 16:15:00
8:35 AM,48.2,42.8,82,30.28,4.0,SW,4.6,-,N/A,,Clear,220,2013-02-02 16:35:00
8:55 AM,48.2,44.6,87,30.28,4.0,Calm,Calm,-,N/A,,Clear,0,2013-02-02 16:55:00
9:15 AM,51.8,44.6,76,30.29,4.0,Calm,Calm,-,N/A,,Clear,0,2013-02-02 17:15:00
9:35 AM,51.8,44.6,76,30.29,4.0,Calm,Calm,-,N/A,,Clear,0,2013-02-02 17:35:00
9:55 AM,53.6,46.4,77,30.29,4.0,Calm,Calm,-,N/A,,Clear,0,2013-02-02 17:55:00
10:15 AM,53.6,46.4,77,30.30,4.0,Calm,Calm,-,N/A,,Clear,0,2013-02-02 18:15:00
10:35 AM,55.4,46.4,72,30.30,4.0,WNW,3.5,-,N/A,,Clear,300,2013-02-02 18:35:00
10:55 AM,55.4,46.4,72,30.30,4.0,West,5.8,-,N/A,,Clear,280,2013-02-02 18:55:00
11:15 AM,55.4,46.4,72,30.28,3.0,NW,3.5,-,N/A,,Clear,310,2013-02-02 19:15:00
11:35 AM,55.4,48.2,77,30.27,3.0,Calm,Calm,-,N/A,,Clear,0,2013-02-02 19:35:00
11:55 AM,55.4,48.2,77,30.26,3.0,Calm,Calm,-,N/A,,Clear,0,2013-02-02 19:55:00
12:15 PM,55.4,48.2,77,30.26,3.0,West,3.5,-,N/A,,Clear,280,2013-02-02 20:15:00
12:35 PM,57.2,48.2,72,30.25,3.0,West,3.5,-,N/A,,Clear,280,2013-02-02 20:35:00
12:55 PM,57.2,48.2,72,30.24,3.0,NW,3.5,-,N/A,,Clear,320,2013-02-02 20:55:00
1:15 PM,59.0,48.2,67,30.24,4.0,Calm,Calm,-,N/A,,Clear,0,2013-02-02 21:15:00
1:35 PM,59.0,48.2,67,30.23,4.0,Calm,Calm,-,N/A,,Clear,0,2013-02-02 21:35:00
1:55 PM,60.8,48.2,63,30.22,4.0,NW,3.5,-,N/A,,Clear,320,2013-02-02 21:55:00
2:15 PM,60.8,48.2,63,30.22,4.0,North,4.6,-,N/A,,Clear,350,2013-02-02 22:15:00
2:35 PM,60.8,48.2,63,30.21,3.0,North,4.6,-,N/A,,Clear,350,2013-02-02 22:35:00
2:55 PM,60.8,48.2,63,30.22,3.0,Calm,Calm,-,N/A,,Clear,0,2013-02-02 22:55:00
3:15 PM,60.8,48.2,63,30.22,3.0,NW,5.8,-,N/A,,Clear,320,2013-02-02 23:15:00
3:35 PM,60.8,48.2,63,30.22,3.0,NW,5.8,-,N/A,,Clear,320,2013-02-02 23:35:00
3:55 PM,60.8,48.2,63,30.22,4.0,NW,6.9,-,N/A,,Clear,320,2013-02-02 23:55:00
4:15 PM,60.8,48.2,63,30.22,5.0,NW,5.8,-,N/A,,Clear,310,2013-02-03 00:15:00
4:35 PM,60.8,48.2,63,30.23,3.0,West,3.5,-,N/A,,Clear,280,2013-02-03 00:35:00
4:55 PM,60.8,48.2,63,30.23,4.0,West,3.5,-,N/A,,Clear,280,2013-02-03 00:55:00
5:15 PM,59.0,48.2,67,30.23,4.0,NW,5.8,-,N/A,,Clear,320,2013-02-03 01:15:00
5:35 PM,57.2,48.2,72,30.23,4.0,NW,4.6,-,N/A,,Clear,310,2013-02-03 01:35:00
5:55 PM,55.4,46.4,72,30.23,5.0,Calm,Calm,-,N/A,,Clear,0,2013-02-03 01:55:00
6:15 PM,55.4,46.4,72,30.24,5.0,Calm,Calm,-,N/A,,Clear,0,2013-02-03 02:15:00
6:35 PM,55.4,46.4,72,30.24,4.0,SSW,4.6,-,N/A,,Clear,200,2013-02-03 02:35:00
6:55 PM,53.6,46.4,77,30.24,4.0,Calm,Calm,-,N/A,,Clear,0,2013-02-03 02:55:00
7:15 PM,53.6,46.4,77,30.23,4.0,Calm,Calm,-,N/A,,Clear,0,2013-02-03 03:15:00
7:35 PM,51.8,46.4,82,30.24,3.0,Calm,Calm,-,N/A,,Clear,0,2013-02-03 03:35:00
7:55 PM,53.6,46.4,77,30.24,3.0,SSE,4.6,-,N/A,,Clear,160,2013-02-03 03:55:00
8:15 PM,51.8,46.4,82,30.24,3.0,South,3.5,-,N/A,,Clear,180,2013-02-03 04:15:00
8:35 PM,51.8,44.6,76,30.24,3.0,Calm,Calm,-,N/A,,Clear,0,2013-02-03 04:35:00
8:55 PM,51.8,46.4,82,30.24,3.0,Calm,Calm,-,N/A,,Clear,0,2013-02-03 04:55:00
9:15 PM,51.8,44.6,76,30.24,3.0,SSE,3.5,-,N/A,,Clear,160,2013-02-03 05:15:00
9:35 PM,51.8,46.4,82,30.23,3.0,Calm,Calm,-,N/A,,Clear,0,2013-02-03 05:35:00
9:55 PM,51.8,44.6,76,30.24,3.0,Calm,Calm,-,N/A,,Clear,0,2013-02-03 05:55:00
10:15 PM,50.0,44.6,82,30.23,2.5,Calm,Calm,-,N/A,,Clear,0,2013-02-03 06:15:00
10:35 PM,48.2,42.8,82,30.23,2.5,Calm,Calm,-,N/A,,Clear,0,2013-02-03 06:35:00
10:55 PM,50.0,44.6,82,30.23,2.5,ESE,3.5,-,N/A,,Clear,110,2013-02-03 06:55:00
11:15 PM,50.0,44.6,82,30.24,2.5,East,3.5,-,N/A,,Clear,100,2013-02-03 07:15:00
11:35 PM,48.2,44.6,87,30.23,2.0,Calm,Calm,-,N/A,,Clear,0,2013-02-03 07:35:00
11:55 PM,48.2,44.6,87,30.23,2.0,ENE,4.6,-,N/A,,Clear,70,2013-02-03 07:55:00